FLOCK 3P-46

Last updated on Wed Feb 14 2018 16:20:33 GMT+0000 (Coordinated Universal Time)

1 42031U 17008CM 18044.81675793 .00001069 00000-0 47187-4 0 9996 2 42031 97.4659 110.4151 0009713 87.7007 272.5342 15.23904658 55327
UTC large
Height (km)
Speed (km/s)
/
Latitude / Longitude
Inclination (degrees)
Orbital Period (minutes)
Azimuth
Elevation
Range (km)
Doppler Factor

Next 0 passes for location: London (51.5072 / 0.1276)

Sorry there are no passes over London.